Location: Olmeneta
(45.2333°N, 10.0167°E)
Time: 21:23:26
(UTC+00:00)

deb Kosmos-1110 - Visible Passes

Search period start: 19 September 2021 00:00
Search period end: 29 September 2021 00:00
Orbit: 606 x 608 km, 74.0° (Epoch: 18 September)

Date Brightness Start Highest point End Pass type
(mag) Time Alt. Az. Time Alt. Az. Time Alt. Az.
23 Sep ? 04:08:41 10° ESE 04:09:55 11° E 04:11:10 10° ENE visible
24 Sep ? 04:19:58 10° SE 04:23:09 20° E 04:26:21 10° NE visible
25 Sep ? 04:32:29 10° SSE 04:36:28 35° ESE 04:40:28 10° NE visible
27 Sep ? 03:23:49 10° ESE 03:25:26 12° E 03:27:03 10° ENE visible
28 Sep ? 03:35:21 10° SSE 03:38:40 21° E 03:41:59 10° NE visible
